LiveATC.Net - Listen to live air traffic control over the Internet!


ICAO: KOFP  IATA: OFP   Airport: Hanover County Municipal Airport
City: Richmond/Ashland   State/Province: Virginia
Country: United States   Continent: North America
KOFP METAR Weather: KOFP 221954Z AUTO 25008KT 10SM CLR 32/21 A3003 RMK AO2 SLP166 T03220211
KOFP Flight Activity (FlightAware)
KOFP Airport Info   (iFlightPlanner)
KOFP VFR Sectional Chart   (iFlightPlanner) 
KOFP IFR Low Altitude Chart   (iFlightPlanner) 
KOFP IFR High Altitude Chart   (iFlightPlanner) 

KOFP CTAF
Feed Status: UP   Listeners: 0
Listen in your browser - HTML5 player (in browser, HTML5)
Click here to listen with your own player (launches your MP3 player)
Archive Access: KOFP CTAF
FacilityFrequency
Hanover County CTAF122.700

NOTICE

Unauthorized use prohibited. See LiveATC.net Terms of Service


Airport/ARTCC Code
Frequency Search
(e.g., 124.400, 128.75)
Site-wide search
 


Browse Feeds
Top 50 Feeds
HF Oceanic Feeds
Coverage Map
Bad Weather Areas

LiveATC FAQ
Offer LiveATC feed
Contact LiveATC.net
Press Inquiries

LiveATC on iPhone
LiveATC on Android

LiveATC Mobile
(Mobile browser)

ATC Audio Archives
Interesting Recordings

LiveATC Forums


Home Page
About LiveATC.net


Terms of Use
Privacy Policy

AIRMETs/SIGMETs

FAA Airport Status
NAS Status
Arrival Demand


Server Software By:
Icecast.org
Liquidsoap